TIANMU-1 14

Last updated on Thu Oct 30 2025 00:02:23 GMT+0000 (Coordinated Universal Time)

1 58648U 23205D 25302.54006564 .00008684 00000+0 36392-3 0 9996 2 58648 97.3605 322.3470 0010614 71.8676 288.3716 15.23708680102346
UTC large
Height (km)
Speed (km/s)
/
Latitude / Longitude
Inclination (degrees)
Orbital Period (minutes)
Azimuth
Elevation
Range (km)
Doppler Factor

Next 0 passes for location: London (51.5072 / 0.1276)

Sorry there are no passes over London.